This is the latest recevied weather packets stored in our database for station/object KI7JYE. If no packets are shown the sender has not sent any weather packets the latest 10 day(s).
| Time | Temp. | Humidity | Pressure | Rain* | Wind** | Luminosity | Snow |
|---|---|---|---|---|---|---|---|
| 1777515049 | 21.11° C | 46% | 1017.9 hPa | 0 mm | - | 37 W/m² | - |
| 1777514745 | 21.67° C | 46% | 1017.9 hPa | 0 mm | - | 40 W/m² | - |
| 1777514442 | 21.67° C | 44% | 1018.1 hPa | 0 mm | - | 43 W/m² | - |
| 1777514139 | 21.67° C | 43% | 1018.1 hPa | 0 mm | - | 45 W/m² | - |
| 1777513836 | 21.67° C | 44% | 1017.9 hPa | 0 mm | - | 48 W/m² | - |
| 1777513533 | 22.78° C | 43% | 1017.8 hPa | 0 mm | - | 53 W/m² | - |
| 1777513230 | 22.78° C | 41% | 1018.2 hPa | 0 mm | - | 83 W/m² | - |
| 1777512926 | 22.78° C | 42% | 1018.1 hPa | 0 mm | - | 95 W/m² | - |
| 1777512623 | 22.22° C | 43% | 1018.3 hPa | 0 mm | - | 108 W/m² | - |
| 1777512320 | 22.22° C | 42% | 1018.2 hPa | 0 mm | - | 122 W/m² | - |
| 1777512016 | 21.67° C | 43% | 1018.3 hPa | 0 mm | - | 134 W/m² | - |
| 1777511715 | 22.22° C | 41% | 1018.2 hPa | 0 mm | - | 144 W/m² | - |
| 1777511411 | 21.67° C | 44% | 1018.6 hPa | 0 mm | - | 156 W/m² | - |
| 1777511108 | 21.67° C | 44% | 1018.5 hPa | 0 mm | - | 168 W/m² | - |
| 1777510803 | 21.67° C | 42% | 1018.5 hPa | 0 mm | - | 185 W/m² | - |
| 1777510501 | 21.67° C | 43% | 1018.4 hPa | 0 mm | - | 202 W/m² | - |
| 1777510196 | 22.22° C | 44% | 1018.7 hPa | 0 mm | - | 215 W/m² | - |
| 1777509894 | 22.22° C | 43% | 1018.4 hPa | 0 mm | - | 224 W/m² | - |
| 1777509588 | 21.67° C | 42% | 1018.6 hPa | 0 mm | - | 236 W/m² | - |
| 1777509285 | 22.22° C | 41% | 1018.6 hPa | 0 mm | - | 235 W/m² | - |
| 1777508983 | 22.22° C | 39% | 1018.8 hPa | 0 mm | - | 261 W/m² | - |
| 1777508680 | 21.67° C | 42% | 1018.7 hPa | 0 mm | - | 290 W/m² | - |
| 1777508377 | 21.11° C | 43% | 1018.7 hPa | 0 mm | - | 303 W/m² | - |
| 1777508074 | 21.67° C | 43% | 1018.9 hPa | 0 mm | - | 320 W/m² | - |
| 1777507771 | 21.67° C | 43% | 1019 hPa | 0 mm | - | 336 W/m² | - |
* Rain latest hour (hover to see other rain measurements)
** Current wind speed in m/s (hover to see current wind gust speed)